EW7133 Weather Reports


Display with metric or nautical units.
time (UTC)temp
F
wind
direction
speed
MPH
gust
MPH
rain 1hr
in
rain 24hr
in
rain mn
in
humidity
%
barometer
mb
20260505210051 81 234 0.0 0.0 0.00 0.00 0.00 39 1006.1
20260505204553 81 360 0.0 0.0 0.00 0.00 0.00 38 1005.9
20260505203032 81 237 0.0 0.0 0.00 0.00 0.00 38 1006.1
20260505201530 82 225 0.0 0.0 0.00 0.00 0.00 37 1006.1
20260505200013 82 191 0.0 0.0 0.00 0.00 0.00 37 1006.2
20260505194511 82 200 0.0 0.0 0.00 0.00 0.00 37 1006.3
20260505193110 82 222 0.0 0.0 0.00 0.00 0.00 34 1006.2
20260505191609 82 215 0.0 0.0 0.00 0.00 0.00 35 1006.3
20260505190050 82 163 0.0 0.0 0.00 0.00 0.00 37 1006.6
20260505184531 83 227 0.0 0.0 0.00 0.00 0.00 38 1006.7
20260505183035 83 360 0.0 0.0 0.00 0.00 0.00 39 1006.9
20260505181508 82 182 0.0 0.0 0.00 0.00 0.00 41 1007.1
20260505180006 81 256 0.0 0.0 0.00 0.00 0.00 41 1007.4
20260505174553 81 206 0.0 0.0 0.00 0.00 0.00 43 1007.6
20260505173046 81 199 0.0 0.0 0.00 0.00 0.00 44 1007.6
20260505171530 80 220 0.0 0.0 0.00 0.00 0.00 47 1007.7
20260505170023 80 242 0.0 0.0 0.00 0.00 0.00 50 1007.9
20260505164600 79 242 0.0 0.0 0.00 0.00 0.00 47 1008.2
20260505163056 78 360 0.0 0.0 0.00 0.00 0.00 51 1008.5
20260505161537 77 222 0.0 0.0 0.00 0.00 0.00 52 1008.6
20260505153012 74 252 0.0 0.0 0.00 0.00 0.00 56 1009.3
20260505151554 73 211 0.0 0.0 0.00 0.00 0.00 59 1009.4
20260505124550 63 268 0.0 0.0 0.00 0.00 0.00 74 1009.9
20260505123047 62 246 0.0 0.0 0.00 0.00 0.00 77 1010.0
20260505121533 62 241 0.0 0.0 0.00 0.00 0.00 79 1010.0
20260505120034 60 214 0.0 0.0 0.00 0.00 0.00 83 1009.6
20260505114532 60 98 0.0 0.0 0.00 0.00 0.00 82 1009.8
20260505113034 58 98 0.0 0.0 0.00 0.00 0.00 84 1009.8
20260505111531 56 89 0.0 0.0 0.00 0.00 0.00 89 1009.8
20260505101528 53 83 0.0 0.0 0.00 0.00 0.00 92 1008.9
20260505100032 54 71 0.0 0.0 0.00 0.00 0.00 90 1009.0
20260505094552 55 80 0.0 0.0 0.00 0.00 0.00 85 1009.5
20260505093101 55 240 0.0 0.0 0.00 0.00 0.00 82 1010.0
20260505091532 56 282 0.0 0.0 0.00 0.00 0.00 77 1009.6
20260505090031 56 89 0.0 0.0 0.00 0.00 0.00 76 1009.3
20260505084514 56 92 0.0 0.0 0.00 0.00 0.00 76 1009.2
20260505083013 56 92 0.0 0.0 0.00 0.00 0.00 75 1008.9
20260505081614 57 170 0.0 0.0 0.00 0.00 0.00 72 1008.8
20260505074536 58 202 0.0 0.0 0.00 0.00 0.00 70 1008.9
20260505073039 58 201 0.0 0.0 0.00 0.00 0.00 69 1009.0
20260505071517 59 200 0.0 0.0 0.00 0.00 0.00 68 1008.9
20260505070017 59 360 0.0 0.0 0.00 0.00 0.00 67 1008.8
20260505064559 58 251 0.0 0.0 0.00 0.00 0.00 68 1008.9
20260505063114 57 241 0.0 0.0 0.00 0.00 0.00 68 1009.1
20260505061542 57 95 0.0 0.0 0.00 0.00 0.00 67 1009.1
20260505060042 57 95 0.0 0.0 0.00 0.00 0.00 66 1009.1
20260505054523 59 130 0.0 0.0 0.00 0.00 0.00 63 1009.1
20260505053034 59 247 0.0 0.0 0.00 0.00 0.00 62 1009.1
20260505051511 59 323 0.0 0.0 0.00 0.00 0.00 62 1009.1
20260505041527 58 50 0.0 0.0 0.00 0.00 0.00 62 1009.0
20260505040028 58 67 0.0 0.0 0.00 0.00 0.00 63 1009.1
20260505034512 59 53 0.0 0.0 0.00 0.00 0.00 62 1009.0
20260505033012 61 67 0.0 0.0 0.00 0.00 0.00 58 1009.1
20260505031511 61 214 0.0 0.0 0.00 0.00 0.00 57 1009.3
20260505030011 61 61 0.0 0.0 0.00 0.00 0.00 56 1009.2
20260505024511 61 120 0.0 0.0 0.00 0.00 0.00 56 1009.3
20260505023014 62 24 0.0 0.0 0.00 0.00 0.00 55 1009.3
20260505021510 62 107 0.0 0.0 0.00 0.00 0.00 55 1009.4
20260505020009 62 128 0.0 0.0 0.00 0.00 0.00 54 1009.3
20260505014509 63 98 0.0 0.0 0.00 0.00 0.00 54 1009.3
20260505013009 63 106 0.0 0.0 0.00 0.00 0.00 52 1009.1
20260505011510 64 201 0.0 0.0 0.00 0.00 0.00 51 1009.1
20260505010017 65 161 0.0 0.0 0.00 0.00 0.00 51 1008.9
20260505004509 65 175 0.0 0.0 0.00 0.00 0.00 50 1008.8
20260505003010 65 182 0.0 0.0 0.00 0.00 0.00 50 1008.8
20260505001528 66 143 0.0 0.0 0.00 0.00 0.00 50 1008.6
20260505000040 67 182 0.0 0.0 0.00 0.00 0.00 48 1008.5
20260504234528 67 163 0.0 0.0 0.00 0.00 0.00 47 1008.3
20260504233027 68 175 0.0 0.0 0.00 0.00 0.00 47 1008.0
20260504231509 69 189 0.0 0.0 0.00 0.00 0.00 45 1007.9
20260504230009 70 161 0.0 0.0 0.00 0.00 0.00 43 1007.8
20260504224550 70 182 0.0 0.0 0.00 0.00 0.00 41 1007.7
20260504223059 71 215 0.0 0.0 0.00 0.00 0.00 41 1007.8
20260504221542 72 190 0.0 0.0 0.00 0.00 0.00 41 1007.8
20260504220033 72 242 0.0 0.0 0.00 0.00 0.00 41 1007.9
20260504214511 71 153 0.0 0.0 0.00 0.00 0.00 41 1008.0
20260504213009 71 217 0.0 0.0 0.00 0.00 0.00 40 1008.1
20260504211551 72 360 0.0 0.0 0.00 0.00 0.00 40 1008.2